Location: Brno
(49.2000°N, 16.6330°E)
Time: 20:55:06
(UTC+02:00)

RESURS DK-1 - Visible Passes

Search period start: 27 September 2016 00:00
Search period end: 07 October 2016 00:00
Orbit: 557 x 564 km, 69.9° (Epoch: 26 September)

Date Brightness Start Highest point End Pass type
(mag) Time Alt. Az. Time Alt. Az. Time Alt. Az.
27 Sep 5.1 03:46:09 11° SE 03:47:37 13° ESE 03:49:32 10° ENE visible
27 Sep 2.3 05:22:07 18° SW 05:25:05 76° WNW 05:29:15 10° NNE visible
28 Sep 4.7 03:45:39 17° ESE 03:46:15 17° ESE 03:48:58 10° ENE visible
28 Sep 2.5 05:21:37 25° SW 05:23:53 58° NW 05:28:00 10° NNE visible
29 Sep 4.4 03:45:03 22° ESE 03:45:03 22° ESE 03:48:08 10° NE visible
29 Sep 2.8 05:21:00 28° WSW 05:22:42 44° NW 05:26:43 10° NNE visible
30 Sep 4.3 03:44:22 27° E 03:44:22 27° E 03:47:10 10° NE visible
30 Sep 3.1 05:20:19 29° W 05:21:33 35° NW 05:25:23 10° NNE visible
01 Oct 4.2 03:43:36 29° ENE 03:43:36 29° ENE 03:46:07 10° NE visible
01 Oct 3.4 05:19:33 26° WNW 05:20:25 28° NW 05:24:03 10° NNE visible
02 Oct 4.3 03:42:47 29° NE 03:42:47 29° NE 03:44:59 10° NE visible
02 Oct 3.7 05:18:43 22° WNW 05:19:18 23° NW 05:22:40 10° N visible
03 Oct 4.4 03:41:54 26° NE 03:41:54 26° NE 03:43:50 10° NE visible
03 Oct 4.0 05:17:51 19° NW 05:18:13 19° NW 05:21:14 10° N visible
04 Oct 4.6 03:40:58 23° NNE 03:40:58 23° NNE 03:42:37 10° NNE visible
04 Oct 4.3 05:16:55 16° NW 05:17:09 16° NW 05:19:44 10° N visible
05 Oct 4.8 03:40:01 20° NNE 03:40:01 20° NNE 03:41:23 10° NNE visible
05 Oct 4.5 05:15:57 13° NW 05:16:06 13° NW 05:18:09 10° N visible
06 Oct 4.9 03:39:01 17° NNE 03:39:01 17° NNE 03:40:07 10° NNE visible
06 Oct 4.7 05:14:57 11° NW 05:15:05 11° NW 05:16:21 10° NNW visible
